Total_Precipitation_Accumulation
2.28 1.88 1.29 0.79 0.64 0.60 0.54 0.64 0.73 0.73 0.73 0.79 0.82 0.70 0.68 0.61 0.60 0.65 0.61 0.66 0.82 1.03 1.25 1.40 1.58 1.82 2.05 2.09 2.17 2.34 2.53 2.71 2.90 3.07 3.08 2.97 2.93 2.87 2.81 2.65 2.47 2.33 2.24 2.21
1.93 1.36 0.65 0.47 0.50 0.52 0.55 0.65 0.69 0.68 0.67 0.78 0.83 0.75 0.69 0.69 0.65 0.65 0.62 0.61 0.76 0.96 1.14 1.31 1.49 1.67 1.85 1.99 2.09 2.29 2.48 2.59 2.65 2.82 3.03 2.97 3.00 3.04 3.08 3.00 2.79 2.60 2.50 2.43
1.47 0.89 0.50 0.55 0.65 0.61 0.51 0.54 0.59 0.65 0.69 0.83 0.93 0.95 0.74 0.70 0.66 0.59 0.57 0.61 0.75 0.94 1.05 1.18 1.35 1.50 1.64 1.86 2.09 2.23 2.37 2.53 2.61 2.87 3.33 3.36 3.31 3.23 3.20 3.19 3.06 2.85 2.72 2.65
1.29 0.74 0.58 0.62 0.60 0.57 0.54 0.39 0.50 0.61 0.87 1.05 1.02 1.29 0.84 0.76 0.72 0.62 0.58 0.61 0.77 0.90 0.95 1.04 1.26 1.38 1.47 1.63 1.92 2.22 2.37 2.58 2.82 3.08 3.33 3.40 3.22 3.10 3.02 2.98 3.05 3.05 2.82 2.75
1.25 0.85 0.71 0.67 0.53 0.52 0.52 0.40 0.52 0.63 0.83 1.03 0.84 1.04 0.90 0.71 0.75 0.74 0.70 0.70 0.82 0.92 0.98 1.04 1.23 1.33 1.36 1.45 1.66 1.94 2.25 2.42 2.76 3.05 3.20 3.40 3.21 2.95 3.01 3.01 2.95 3.02 2.95 2.78
0.87 0.73 0.78 0.67 0.48 0.51 0.54 0.56 0.70 0.82 1.08 1.24 0.73 0.81 0.89 0.79 0.78 0.77 0.77 0.83 0.93 1.00 1.01 1.09 1.22 1.22 1.23 1.30 1.44 1.61 1.88 2.04 2.23 2.54 2.85 3.10 3.16 3.03 2.97 2.91 2.92 2.89 2.85 2.79
1.04 0.84 0.71 0.63 0.68 0.65 0.70 1.03 1.41 1.57 1.49 1.03 0.57 0.65 0.88 0.78 0.71 0.73 0.80 0.86 0.91 0.96 0.96 1.07 1.16 1.09 1.07 1.14 1.28 1.41 1.55 1.69 1.83 2.04 2.33 2.64 2.87 2.93 2.92 2.89 2.84 2.87 2.75 2.62
1.08 1.15 0.71 0.60 0.69 0.74 0.66 0.86 1.16 1.18 0.85 0.60 0.42 0.62 0.82 0.77 0.74 0.72 0.78 0.79 0.81 0.86 0.90 1.05 1.20 1.15 1.07 1.07 1.12 1.17 1.29 1.46 1.59 1.70 1.90 2.10 2.31 2.47 2.48 2.58 2.61 2.65 2.66 2.58
0.76 0.80 0.50 0.41 0.37 0.48 0.64 0.61 0.60 0.97 0.70 0.53 0.52 0.63 0.77 0.73 0.72 0.73 0.77 0.74 0.74 0.78 0.89 1.00 1.07 1.05 0.99 0.98 0.99 1.02 1.14 1.27 1.32 1.39 1.53 1.60 1.73 1.93 2.04 2.10 2.17 2.22 2.30 2.40
0.56 0.66 0.46 0.34 0.34 0.39 0.44 0.45 0.60 1.11 1.06 0.69 0.50 0.54 0.80 0.77 0.75 0.73 0.70 0.69 0.71 0.78 0.83 0.85 0.86 0.84 0.83 0.87 0.93 0.96 1.02 1.08 1.08 1.13 1.24 1.29 1.34 1.47 1.62 1.73 1.76 1.79 1.87 2.00
0.39 0.57 0.50 0.40 0.46 0.41 0.37 0.51 0.66 0.86 0.83 0.77 0.55 0.60 0.65 0.67 0.70 0.69 0.65 0.65 0.67 0.70 0.67 0.67 0.66 0.68 0.72 0.74 0.76 0.79 0.84 0.93 0.96 0.95 1.00 1.08 1.14 1.23 1.38 1.52 1.56 1.63 1.65 1.69
0.34 0.55 0.51 0.33 0.24 0.19 0.25 0.39 0.62 1.01 0.82 0.65 0.60 0.58 0.51 0.51 0.53 0.54 0.54 0.55 0.55 0.55 0.54 0.56 0.58 0.60 0.65 0.65 0.64 0.71 0.76 0.85 0.87 0.83 0.87 0.93 1.00 1.06 1.17 1.27 1.36 1.44 1.45 1.49
0.57 0.79 0.75 0.53 0.38 0.28 0.32 0.34 0.45 0.77 1.07 0.77 0.68 0.61 0.45 0.41 0.40 0.41 0.45 0.48 0.46 0.45 0.44 0.45 0.48 0.51 0.55 0.61 0.62 0.64 0.66 0.72 0.76 0.77 0.83 0.87 0.88 0.91 0.96 1.01 1.11 1.13 1.18 1.28
0.78 0.84 0.65 0.55 0.40 0.43 0.44 0.29 0.36 0.95 1.32 0.66 0.37 0.42 0.38 0.37 0.38 0.40 0.43 0.43 0.41 0.40 0.38 0.38 0.41 0.42 0.44 0.52 0.57 0.57 0.55 0.60 0.69 0.73 0.77 0.82 0.81 0.81 0.85 0.86 0.91 0.93 0.96 0.98
0.68 0.74 0.36 0.24 0.23 0.38 0.42 0.31 0.33 0.60 0.61 0.63 0.36 0.30 0.35 0.35 0.39 0.41 0.41 0.38 0.36 0.36 0.35 0.33 0.38 0.39 0.41 0.45 0.49 0.50 0.51 0.56 0.64 0.71 0.71 0.73 0.76 0.76 0.77 0.77 0.76 0.76 0.78 0.78
0.61 0.66 0.38 0.27 0.18 0.27 0.35 0.24 0.22 0.26 0.30 0.36 0.28 0.32 0.30 0.32 0.35 0.38 0.38 0.37 0.40 0.40 0.39 0.35 0.35 0.36 0.38 0.43 0.51 0.56 0.60 0.63 0.63 0.68 0.66 0.66 0.70 0.73 0.74 0.72 0.67 0.68 0.72 0.78
0.60 0.66 0.74 0.44 0.17 0.37 0.46 0.30 0.24 0.24 0.28 0.35 0.42 0.41 0.33 0.36 0.44 0.50 0.44 0.36 0.38 0.41 0.43 0.40 0.38 0.40 0.42 0.50 0.65 0.76 0.81 0.79 0.75 0.73 0.69 0.65 0.67 0.70 0.72 0.75 0.75 0.75 0.76 0.80
0.56 0.70 1.05 0.75 0.45 0.66 0.43 0.24 0.20 0.23 0.30 0.36 0.36 0.33 0.34 0.39 0.44 0.45 0.39 0.34 0.35 0.37 0.42 0.43 0.43 0.49 0.52 0.58 0.70 0.78 0.85 0.90 0.89 0.89 0.86 0.79 0.80 0.86 0.90 0.92 0.96 0.94 0.93 0.96
0.36 0.76 1.28 1.12 0.77 0.42 0.24 0.17 0.26 0.33 0.35 0.35 0.33 0.28 0.26 0.27 0.31 0.33 0.30 0.30 0.34 0.38 0.42 0.44 0.45 0.52 0.61 0.66 0.70 0.79 0.88 0.90 0.96 1.08 1.16 1.11 1.08 1.12 1.18 1.21 1.23 1.22 1.20 1.20
0.37 0.76 1.47 1.35 1.07 0.50 0.26 0.15 0.21 0.33 0.49 0.30 0.29 0.30 0.27 0.28 0.40 0.36 0.31 0.32 0.33 0.35 0.36 0.39 0.42 0.47 0.61 0.73 0.83 0.94 1.04 1.06 1.09 1.19 1.30 1.26 1.23 1.23 1.25 1.26 1.23 1.19 1.15 1.15
0.58 1.05 1.40 1.14 1.04 0.49 0.26 0.15 0.22 0.58 0.62 0.31 0.28 0.32 0.35 0.43 0.50 0.38 0.34 0.37 0.41 0.43 0.42 0.43 0.49 0.60 0.76 0.92 1.06 1.23 1.26 1.24 1.18 1.16 1.16 1.13 1.06 1.00 0.98 0.97 0.93 0.89 0.86 0.85
0.47 0.74 0.85 0.93 1.19 0.68 0.26 0.23 0.47 0.60 0.36 0.27 0.24 0.29 0.35 0.35 0.31 0.30 0.30 0.33 0.41 0.47 0.47 0.50 0.59 0.71 0.81 0.91 1.03 1.12 1.10 1.03 0.97 0.90 0.85 0.81 0.78 0.74 0.72 0.75 0.73 0.69 0.66 0.66
0.44 0.60 0.70 0.77 0.74 0.47 0.33 0.40 0.45 0.39 0.35 0.28 0.30 0.29 0.31 0.30 0.27 0.27 0.29 0.29 0.34 0.39 0.42 0.46 0.50 0.53 0.57 0.63 0.70 0.77 0.78 0.72 0.69 0.64 0.59 0.58 0.57 0.59 0.58 0.60 0.63 0.62 0.60 0.62
0.44 0.43 0.56 0.60 0.49 0.39 0.37 0.34 0.31 0.31 0.34 0.31 0.31 0.30 0.29 0.31 0.26 0.27 0.29 0.29 0.31 0.34 0.38 0.44 0.44 0.43 0.47 0.49 0.52 0.58 0.63 0.65 0.62 0.60 0.57 0.53 0.53 0.56 0.59 0.62 0.64 0.66 0.66 0.69
0.42 0.44 0.55 0.56 0.42 0.39 0.37 0.35 0.35 0.32 0.27 0.25 0.23 0.23 0.26 0.30 0.29 0.30 0.34 0.34 0.36 0.38 0.42 0.45 0.47 0.47 0.49 0.47 0.48 0.52 0.58 0.62 0.62 0.62 0.61 0.59 0.56 0.55 0.60 0.64 0.69 0.75 0.75 0.82
0.38 0.50 0.69 0.62 0.41 0.49 0.44 0.36 0.34 0.32 0.27 0.25 0.25 0.24 0.24 0.29 0.34 0.32 0.34 0.36 0.39 0.42 0.45 0.45 0.45 0.46 0.47 0.47 0.47 0.50 0.57 0.62 0.65 0.66 0.64 0.64 0.64 0.61 0.61 0.64 0.72 0.79 0.83 0.86